Regional Weather Roundup
Issued by NWS Grand Forks, ND

Home | Current Version | Previous Version | Text Only | Print | Product List | Glossary Off
Versions: 1 2 3 4 5 6 7 8 9 10 11 12 13 14 15 16 17 18 19 20 21 22 23 24 25 26 27 28 29 30 31 32 33 34 35 36 37 38 39 40 41 42 43 44 45 46 47 48 49 50

000
ASUS43 KFGF 240931
RWRFGF
PRAIRIE TO PINES  WEATHER ROUNDUP
NATIONAL WEATHER SERVICE EASTERN NORTH DAKOTA/GRAND FORKS ND
400 AM CDT THU APR 24 2014

 **SATELLITE DATA USED TO AUGMENT SKY COVER AT AUTOMATED STATIONS**
 *****  WEATHER ACROSS EASTERN NORTH DAKOTA  *****

CITY           SKY/WX    TMP DP  RH WIND       PRES   REMARKS
GRAND FORKS    CLOUDY    39  37  92 SE13      29.79S
GRAND FRKS AFB CLOUDY    38  38 100 SE10      29.78F
GRAND FRKS NWS   N/A     37 N/A N/A SE10        N/A
DEVILS LAKE    CLOUDY    37  34  87 S9        29.72S
FARGO          CLOUDY    42  38  85 SE10      29.77F
WAHPETON ARPT  CLOUDY    41  36  81 SE8       29.76F
$$

 ***** WEATHER ACROSS CENTRAL AND WESTERN NORTH DAKOTA  *****

CITY           SKY/WX    TMP DP  RH WIND       PRES   REMARKS
BISMARCK       PTCLDY    35 N/A N/A W6        29.73F
MINOT          CLEAR     39  36  89 S6        29.66S
JAMESTOWN      CLOUDY    36  35  96 S3        29.72S FOG
MINOT AFB      CLEAR     35  35 100 S8        29.66S
GARRISON         N/A     37  36  96 S7        29.70R
WILLISTON      CLEAR     39  26  59 SW9       29.68R
DICKINSON      CLEAR     36  23  59 W12       29.72R
HETTINGER      CLEAR     30  23  75 W7        29.78S WCI  23
$$

 *****  OTHER AIRPORT OBSERVATIONS IN OUR AREA  *****

CITY           SKY/WX    TMP DP  RH WIND       PRES   REMARKS
WALHALLA       CLOUDY    37  37 100 SE13G18   29.78R FOG
GRAFTON AIRPOR CLOUDY    37  37 100 SE16      29.79S
VALLEY CITY AR CLOUDY    39  39 100 SE9       29.74F
CANDO          CLOUDY    37  37 100 SE10      29.72R FOG
CAVALIER APRT  CLOUDY    37  36  93 SE10G18   29.78S
GWINNER        PTSUNNY   39  39 100 SE6       29.75F
SHEYENNE NWR     N/A     40  40  99 SE7       29.95S
ROLLA          FOG       37  37 100 S14       29.69S VSB 1/2
 ***** THE ABOVE OBSERVATIONS ARE NON NWS ARE NOT QUALITY
       CONTROLLED AND MAY MIS-REPORT RAIN FOR SNOW...
$$

  *****  WEATHER ACROSS NORTHERN MINNESOTA  *****

CITY           SKY/WX    TMP DP  RH WIND       PRES   REMARKS
FLAG ISLAND    DRIZZLE   36  34  93 SE7       29.90F
WARROAD        CLOUDY    37  34  87 SE12      29.89S
ROSEAU         CLOUDY    37  34  87 SE14      29.86F HAZE
HALLOCK        CLOUDY    39  36  87 SE16      29.80F FOG
THF RVR FALLS  CLOUDY    37  34  87 E16       29.83S
BAUDETTE       NOT AVBL
WASKISH        CLOUDY    36  36 100 E9G16     29.89R
CROOKSTON      CLOUDY    37  37 100 SE12      29.81S
$$
  *****  WEATHER ACROSS CENTRAL AND WEST MINNESOTA  *****

CITY           SKY/WX    TMP DP  RH WIND       PRES   REMARKS
FOSSTON        DRIZZLE   36  34  93 E10G17    29.81F
BEMIDJI        CLOUDY    35  34  96 E10       29.85F
PARK RAPIDS    CLOUDY    38  37  97 SE9       29.82F
ELBOW LAKE     CLOUDY    41  37  86 SE12      29.76F
WADENA         CLOUDY    37  36  93 E10       29.80F
DETROIT LAKES  CLOUDY    37  37 100 SE12      29.79F
MOORHEAD       CLOUDY    43  43 100 SE12      29.78F
FERGUS FALLS   CLOUDY    41  36  81 SE12      29.75F
MORRIS MN      CLOUDY    43  37  81 SE12      29.74F
STAPLES        CLOUDY    39  36  87 SE9       29.81F
$$
  *****  WEATHER ELSEWHERE ACROSS MINNESOTA  *****

CITY           SKY/WX    TMP DP  RH WIND       PRES   REMARKS
DULUTH         DRIZZLE   37  34  89 E16       29.96R
INTRNTL FALLS  CLOUDY    37  35  92 SE9       29.94F
ELY            LGT RAIN  36  34  93 E3        29.99F
CLOQUET        CLOUDY    36  36 100 E9        29.94S
WHEATON        CLOUDY    43  39  87 SE7       29.78S
BRAINERD       NOT AVBL
HIBBING        LGT RAIN  35  33  92 E9        29.95F
ALEXANDRIA     CLOUDY    39  36  87 SE14      29.78F
SAINT CLOUD    CLOUDY    43  38  82 E8        29.83F
MINNEAPOLIS    LGT RAIN  42  41  96 E16       29.85S FOG
$$

  *****  WEATHER ACROSS SOUTH DAKOTA  *****

CITY           SKY/WX    TMP DP  RH WIND       PRES   REMARKS
SIOUX FALLS    LGT RAIN  46  44  93 NE6       29.66R
BROOKINGS      NOT AVBL
WATERTOWN      CLOUDY    41  37  86 E6        29.71S
HURON          CLOUDY    45  41  86 NE5       29.70R
SISSETON         N/A     40  38  93 SE8       29.74F
ABERDEEN       CLOUDY    39  38  96 CALM      29.72F
MITCHELL       LGT RAIN  47  43  86 N3        29.69R
PIERRE         CLOUDY    44  37  76 W10       29.75F
MOBRIDGE       CLOUDY    33  32  96 CALM      29.71F
RAPID CITY     CLEAR     34  23  64 NW10      29.85R
$$

  *****  SOME WEATHER IN NEARBY STATES *****

CITY           SKY/WX    TMP DP  RH WIND       PRES   REMARKS
GLASGOW MT     CLEAR     36  27  69 W8        29.69S
GREAT FALLS MT MOCLDY    36  30  79 SW14      29.78R
CHEYENNE WY    PTCLDY    34  11  38 NW13G24   29.96S WCI  25
SCOTTSBLUFF NE MOCLDY    40  33  76 W12       29.92R
OMAHA NE       RAIN      50  45  83 NE7       29.65R
DES MOINES IA  LGT RAIN  50  41  71 SE15G22   29.69F
DAVENPORT IA   CLOUDY    44  35  70 E18       29.91F
CHICAGO IL     CLOUDY    40  31  70 N8        30.08S
EAU CLAIRE WI  LGT RAIN  39  36  89 E15       29.94F
LA CROSSE WI   LGT RAIN  40  35  83 SE14      29.93F
$$

  *****  SOME NATIONAL WEATHER *****

CITY           SKY/WX    TMP DP  RH WIND       PRES   REMARKS
LA GUARDIA NY  CLEAR     44  24  45 NW18      29.84S
RALEIGH NC     PTCLDY    46  33  60 E3        30.05R
ATLANTA GA     CLEAR     51  38  60 NW5       29.97R
NEW ORLEANS LA CLEAR     65  63  93 CALM      29.91S
OKLAHOMA CITY  PTCLDY    67  59  75 S16G25    29.66S
ALBUQUERQUE NM CLEAR     51  10  19 N7        30.03R
SALT LAKE CITY PTCLDY    40  23  50 SE9       30.06S
LOS ANGELES CA PTCLDY    59  49  69 CALM      29.94F
BOISE ID       CLOUDY    47  34  60 S5        29.94S
SEATTLE WA     LGT RAIN  50  46  86 SE10      29.62F
$$

*** WEATHER ACROSS MANITOBA...SASKATCHEWAN AND ONTARIO ***
                ***ONTARIO***

CITY           SKY/WX    TMP DP  RH WIND       PRES   REMARKS
GERALDTON      PTCLDY    25  19  80 E2        30.11S
THUNDER BAY    CLOUDY    34  28  80 E8        30.07F
SIOUX LOOKOUT  CLOUDY    37  19  48 SE5       30.00R
TORONTO        CLEAR     32  19  59 NW9       30.11R WCI  24
BIG TROUT LK   CLOUDY    27  19  74 NE8       30.14S WCI  18
PICKLE LAKE    NOT AVBL
DRYDEN         CLOUDY    39  23  52 SE7       29.98S
KENORA         LGT RAIN  39  34  81 SE9       29.93F
$$
                *** MANITOBA***

CITY           SKY/WX    TMP DP  RH WIND       PRES   REMARKS
BRANDON        LGT RAIN  37  36  93 SE15      29.71F
DAUPHIN        LGT RAIN  39  36  87 SE17G23   29.73F
ISLAND LAKE    PTCLDY    27  23  86 E9G18     30.08F WCI  17
PILOT MOUND      N/A     36  36 100 SE16G22     N/A
THE PAS        CLOUDY    32  27  80 E14G23    29.90F WCI  22
THOMPSON       CLOUDY    23  19  86 E14G21    30.19F WCI  11
WINNIPEG       LGT RAIN  39  36  87 SE17G26   29.83F
LYNN LAKE      CLOUDY    21  18  86 E12G22    30.15F WCI   9
CHURCHILL      FLURRIES  18  12  79 NE3       30.43F
GILLAM         FLURRIES N/A N/A N/A NE6         N/A
$$
                ***SASKATCHEWAN***

CITY           SKY/WX    TMP DP  RH WIND       PRES   REMARKS
ESTEVAN        CLOUDY    37  37 100 S3        29.63S
KINDERSLEY     CLOUDY    37  32  81 W17G26    29.56S
LLOYDMINSTER   LGT RAIN  36  34  93 E14G21    29.52R FOG
PRINCE ALBERT  LGT RAIN  36  34  93 E18G26    29.63F
REGINA         LGT RAIN  41  41 100 SW9       29.59R
YORKTON        LGT RAIN  34  34 100 SE18G24   29.61F WCI  23
N. BATTLEFORD  LGT RAIN  34  34 100 E13G23    29.54S FOG     WCI  25
LA RONGE       CLOUDY    36  27  69 E17G25    29.84F
SASKATOON      LGT RAIN  39  37  93 SE10      29.53R
SWIFT CURRENT  CLOUDY    39  36  87 W21G29    29.61S
$$
NOTE: THESE ARE AUTOMATED STATIONS WITH LIMITED QUALITY CONTROL
      "FAIR" INDICATES FEW OR NO CLOUDS BELOW 12,000 FEET WITH NO
      SIGNIFICANT WEATHER AND/OR OBSTRUCTIONS TO VISIBILITY.
      SKY/WX - SKY CONDITION AND SIGNIFICANT WEATHER.
      TMP - AIR TEMPERATURE.    DP   - DEWPOINT TEMPERATURE.
      RH  - RELATIVE HUMIDITY.  PRES - PRESSURE.
      HX  - HEAT INDEX.         WCI  - WIND CHILL INDEX.
$



USA.gov is the U.S. government's official web portal to all federal, state and local government web resources and services.